Oklahoma City Wiley Post, OK

5:28 PM CDT on April 19, 2018 (GMT -0500)
Wiley Post

Weather History for KPWA - November, 2013

Change the Weather History Date:

Saturday, November 23, 2013

  Actual Average Record
Temperature  
Mean Temperature 34 °F -  
Max Temperature 39 °F 56 °F 77 °F (1966)
Min Temperature 28 °F 37 °F 24 °F (1975)
Degree Days  
Heating Degree Days 32    
Moisture  
Dew Point 18 °F    
Average Humidity 55    
Maximum Humidity 75    
Minimum Humidity 41    
Precipitation  
Precipitation 0.00 in - - ()
Sea Level Pressure  
Sea Level Pressure 30.65 in    
Wind  
Wind Speed 15 mph (NNE)    
Max Wind Speed 21 mph    
Max Gust Speed 29 mph    
Visibility 10 miles    
Events      
Averages and records for this station are not official NWS values.
T = Trace of Precipitation, MM = Missing Value Source: NWS Daily Summary

Daily Weather History Graph

Daily Weather History Graph

Search for Another Location

Airport or City:

Astronomy

Nov. 23, 2013 Rise Set
Actual Time 7:14 AM CST 5:19 PM CST
Civil Twilight 6:46 AM CST 5:47 PM CST
Nautical Twilight 6:15 AM CST 6:18 PM CST
Astronomical Twilight 5:45 AM CST 6:48 PM CST
Moon 10:44 PM CST (11/23) 11:35 AM CST (11/23)
Length of Visible Light 11h 00m
Length of Day
10h 05m
Waning Gibbous, 69% of the Moon is Illuminated
Nov 23
Waning Gibbous
Nov 25
Last Quarter
Dec 2
New
Dec 9
First Quarter
Dec 17
Full

Hourly Weather History & Observations

Time (CST) Temp. Windchill Dew Point Humidity Pressure Visibility Wind Dir Wind Speed Gust Speed Precip Events Conditions
12:53 AM 28.9 °F 18.6 °F 21.9 °F 75% 30.59 in 10.0 mi North 12.7 mph - N/A   Overcast
1:53 AM 28.9 °F 17.3 °F 21.9 °F 75% 30.60 in 10.0 mi North 16.1 mph - N/A   Overcast
2:53 AM 30.0 °F 19.5 °F 21.9 °F 72% 30.61 in 10.0 mi North 13.8 mph - N/A   Overcast
3:53 AM 30.0 °F 19.5 °F 21.0 °F 69% 30.61 in 10.0 mi North 13.8 mph - N/A   Overcast
4:53 AM 30.0 °F 20.0 °F 21.0 °F 69% 30.61 in 10.0 mi North 12.7 mph - N/A   Overcast
5:53 AM 30.0 °F 18.7 °F 21.0 °F 69% 30.62 in 10.0 mi North 16.1 mph 23.0 mph N/A   Overcast
6:53 AM 30.0 °F 18.7 °F 19.9 °F 66% 30.64 in 10.0 mi North 16.1 mph - N/A   Overcast
7:53 AM 30.9 °F 20.7 °F 19.9 °F 64% 30.66 in 10.0 mi North 13.8 mph - N/A   Overcast
8:53 AM 32.0 °F 21.6 °F 19.9 °F 61% 30.68 in 10.0 mi North 15.0 mph - N/A   Overcast
9:53 AM 33.1 °F 24.4 °F 18.0 °F 54% 30.70 in 10.0 mi NNE 11.5 mph - N/A   Overcast
10:53 AM 33.1 °F 23.9 °F 18.0 °F 54% 30.70 in 10.0 mi North 12.7 mph - N/A   Overcast
11:53 AM 35.1 °F 24.5 °F 15.1 °F 44% 30.68 in 10.0 mi NNE 18.4 mph - N/A   Overcast
12:53 PM 36.0 °F 26.7 °F 16.0 °F 44% 30.66 in 10.0 mi NNE 15.0 mph - N/A   Overcast
1:53 PM 37.9 °F 29.2 °F 17.1 °F 43% 30.63 in 10.0 mi NNE 15.0 mph 23.0 mph N/A   Overcast
2:53 PM 39.9 °F 31.1 °F 18.0 °F 41% 30.64 in 10.0 mi NNE 17.3 mph - N/A   Overcast
3:53 PM 39.0 °F 30.3 °F 17.1 °F 41% 30.65 in 10.0 mi NNE 16.1 mph - N/A   Overcast
4:53 PM 37.9 °F 29.6 °F 17.1 °F 43% 30.66 in 10.0 mi NNE 13.8 mph - N/A   Overcast
5:53 PM 36.0 °F 26.0 °F 19.0 °F 50% 30.66 in 10.0 mi NNE 17.3 mph - N/A   Clear
6:53 PM 36.0 °F 26.7 °F 19.0 °F 50% 30.67 in 10.0 mi NNE 15.0 mph - N/A   Clear
7:53 PM 34.0 °F 23.4 °F 16.0 °F 48% 30.67 in 10.0 mi NNE 17.3 mph 28.8 mph N/A   Clear
8:53 PM 33.1 °F 21.2 °F 15.1 °F 48% 30.66 in 10.0 mi NNE 20.7 mph 25.3 mph N/A   Clear
9:53 PM 30.9 °F 19.4 °F 14.0 °F 50% 30.66 in 10.0 mi NNE 17.3 mph 25.3 mph N/A   Clear
10:53 PM 28.9 °F 16.1 °F 12.0 °F 49% 30.66 in 10.0 mi NNE 19.6 mph 24.2 mph N/A   Clear
11:53 PM 28.0 °F 16.1 °F 9.0 °F 45% 30.66 in 10.0 mi NNE 16.1 mph - N/A   Clear